Skip Page Navigation
NASA JPL Caltech
NASA Logo - Jet Propulsion Laboratory + View the NASA Portal
+ Center for Near-Earth Object Studies
JPL Home Earth Solar System Stars & Galaxies Technology
JPL Solar System Dynamics
BODIES ORBITS EPHEMERIDES TOOLS PHYSICAL DATA DISCOVERY FAQ SITE MAP
IMPORTANT: The SSD Announcement email list is now available. Major changes are coming in the near future, including possible hostname and/or URL changes. To be notified of such changes, subscribe to this email list.

Please visit this page for more details.


JPL Small-Body Database Browser
Search: [ help ]  
442033 (2010 PV27)
Classification: Main-belt Asteroid          SPK-ID: 2442033
Ephemeris | Orbit Diagram | Orbital Elements | Mission Design | Physical Parameters | Discovery Circumstances | Close-Approach Data ]

[ show orbit diagram ]
Orbital Elements at Epoch 2458600.5 (2019-Apr-27.0) TDB
Reference: JPL 12 (heliocentric ecliptic J2000)
 Element Value Uncertainty (1-sigma)   Units 
e .1468600650031287 1.1403e-07  
a 3.088296733863863 7.0411e-08 au
q 2.634749274779665 3.5869e-07 au
i 22.73734065698901 1.1827e-05 deg
node 5.665674712674201 1.8654e-05 deg
peri 337.6735663402084 3.0939e-05 deg
M 247.2204292692967 2.6504e-05 deg
tp 2459221.519012797666
(2021-Jan-07.01901280)
0.00015712 TDB
period 1982.33459445413
5.43
6.7794e-05
1.856e-07
d
yr
n .1816040546369682 6.2107e-09 deg/d
Q 3.54184419294806 8.0752e-08 au
  Orbit Determination Parameters
   # obs. used (total)      120  
   data-arc span      6283 days (17.20 yr)  
   first obs. used      2002-03-12  
   last obs. used      2019-05-25  
   planetary ephem.      DE431  
   SB-pert. ephem.      SB431-N16  
   condition code      0  
   norm. resid. RMS      .68501  
   source      ORB  
   producer      Otto Matic  
   solution date      2019-Sep-24 07:42:41  

Additional Information
 Earth MOID = 1.63951 au 
 Jupiter MOID = 1.92991 au 
 T_jup = 3.091 
[ show covariance matrix ]

Ephemeris | Orbit Diagram | Orbital Elements | Mission Design | Physical Parameters | Discovery Circumstances | Close-Approach Data ]

Physical Parameter Table
Parameter Symbol Value Units Sigma Reference Notes
absolute magnitude H 15.9   n/a MPO437718  
diameter diameter 2.592 km 0.342 urn:nasa:pds:neowise_diameters_albedos::2.0[mainbelt] (http://adsabs.harvard.edu/abs/2012ApJ...759L...8M)  
geometric albedo albedo 0.115   0.050 urn:nasa:pds:neowise_diameters_albedos::2.0[mainbelt] (http://adsabs.harvard.edu/abs/2012ApJ...759L...8M)  

442033 (2010 PV27)          Discovered 2010-Aug-05 by WISE at WISE
Reference: Last Updated: 2015-09-02

[ show close-approach data ]
Ephemeris | Orbit Diagram | Orbital Elements | Mission Design | Physical Parameters | Discovery Circumstances | Close-Approach Data ]
ABOUT SSD CREDITS/AWARDS PRIVACY/COPYRIGHT GLOSSARY LINKS
FirstGov
(server date/time)  
NASA Home Page
Site Manager:   Ryan S. Park
Webmaster  Alan B. Chamberlin